EW5500 Weather Reports


time (UTC)temp
F
wind
direction
speed
knots
gust
knots
rain 1hr
in
rain 24hr
in
rain mn
in
humidity
%
barometer
mb
20260505093025 31 342 2.6 7.0 0.00 0.00 0.00 69 1018.6
20260505091524 30 5 1.7 4.3 0.00 0.00 0.00 70 1018.4
20260505090031 30 356 2.6 3.5 0.00 0.00 0.00 68 1018.4
20260505084520 32 333 0.0 2.6 0.00 0.00 0.00 66 1018.3
20260505083024 33 229 0.0 2.6 0.00 0.00 0.00 67 1018.1
20260505081512 33 309 0.0 1.7 0.00 0.00 0.00 67 1018.1
20260505080009 32 349 0.0 0.0 0.00 0.00 0.00 66 1018.0
20260505074508 33 349 0.0 0.0 0.00 0.00 0.00 65 1017.9
20260505073007 32 350 0.0 0.0 0.00 0.00 0.00 67 1017.8
20260505071510 31 350 0.0 0.0 0.00 0.00 0.00 69 1017.7
20260505070001 31 350 0.0 0.0 0.00 0.00 0.00 68 1017.7
20260505064603 32 350 0.0 0.0 0.00 0.00 0.00 66 1017.5
20260505063100 32 350 0.0 0.9 0.00 0.00 0.00 65 1017.4
20260505061621 32 350 0.0 0.9 0.00 0.00 0.00 65 1017.1
20260505060053 33 350 0.0 0.0 0.00 0.00 0.00 66 1016.9
20260505054602 33 350 0.0 0.0 0.00 0.00 0.00 66 1016.9
20260505053047 33 350 0.0 0.0 0.00 0.00 0.00 66 1016.7
20260505051545 33 350 0.0 0.9 0.00 0.00 0.00 66 1016.5
20260505041531 36 350 0.0 2.6 0.00 0.00 0.00 58 1015.5
20260505040027 37 356 0.9 2.6 0.00 0.00 0.00 57 1015.3
20260505034523 38 46 0.0 1.7 0.00 0.00 0.00 55 1015.2
20260505033031 39 350 0.0 3.5 0.00 0.00 0.00 54 1015.0
20260505031516 41 103 0.9 5.2 0.00 0.00 0.00 52 1014.9
20260505030013 42 104 2.6 6.1 0.00 0.00 0.00 49 1014.7
20260505024528 43 91 0.9 4.3 0.00 0.00 0.00 48 1014.6
20260505023008 44 1 1.7 4.3 0.00 0.00 0.00 46 1014.5
20260505021521 45 6 3.5 8.7 0.00 0.00 0.00 44 1014.4
20260505020006 46 326 7.0 12.2 0.00 0.00 0.00 42 1014.3
20260505014504 48 341 7.0 14.8 0.00 0.00 0.00 41 1014.3
20260505013004 49 27 2.6 12.2 0.00 0.00 0.00 39 1014.2
20260505011504 49 30 4.3 16.5 0.00 0.00 0.00 39 1014.1
20260505010002 49 20 9.6 18.2 0.00 0.00 0.00 39 1014.1
20260505004606 50 225 3.5 17.4 0.00 0.00 0.00 39 1014.0
20260505003059 50 333 9.6 17.4 0.00 0.00 0.00 38 1014.0
20260505001558 51 20 7.8 19.1 0.00 0.00 0.00 37 1013.7
20260505000058 51 43 6.1 17.4 0.00 0.00 0.00 38 1013.6
20260504234556 51 11 11.3 20.9 0.00 0.00 0.00 37 1013.5
20260504233100 51 354 7.8 20.9 0.00 0.00 0.00 37 1013.4
20260504231553 52 3 8.7 17.4 0.00 0.00 0.00 36 1013.3
20260504230051 53 353 7.8 19.1 0.00 0.00 0.00 35 1013.1
20260504224550 53 359 9.6 20.0 0.00 0.00 0.00 35 1013.0
20260504223055 53 194 10.4 21.7 0.00 0.00 0.00 32 1012.9
20260504221558 53 12 14.8 24.3 0.00 0.00 0.00 31 1012.7
20260504220112 54 355 10.4 19.1 0.00 0.00 0.00 30 1012.7
20260504214548 54 344 7.0 23.5 0.00 0.00 0.00 30 1012.7
20260504213102 53 278 5.2 19.1 0.00 0.00 0.00 31 1012.7
20260504211547 53 40 7.0 23.5 0.00 0.00 0.00 31 1012.7
20260504210047 54 333 9.6 20.0 0.00 0.00 0.00 30 1012.6
20260504204600 55 276 7.0 20.9 0.00 0.00 0.00 29 1012.6
20260504203044 53 8 12.2 18.2 0.00 0.00 0.00 31 1012.5
20260504201542 53 245 7.0 17.4 0.00 0.00 0.00 31 1012.5
20260504200045 54 338 8.7 17.4 0.00 0.00 0.00 31 1012.4
20260504194544 53 49 7.0 14.8 0.00 0.00 0.00 31 1012.4
20260504193038 53 330 6.1 14.8 0.00 0.00 0.00 35 1012.6
20260504191540 52 353 5.2 10.4 0.00 0.00 0.00 38 1012.6
20260504190038 51 333 4.3 12.2 0.00 0.00 0.00 38 1012.6
20260504184535 52 306 4.3 13.9 0.00 0.00 0.00 38 1012.8
20260504183033 51 348 8.7 14.8 0.00 0.00 0.00 38 1012.7
20260504181529 50 58 9.6 15.6 0.00 0.00 0.00 37 1012.8
20260504180029 50 348 8.7 18.2 0.00 0.00 0.00 39 1013.0
20260504174528 51 13 6.1 20.0 0.00 0.00 0.00 38 1012.9
20260504173026 50 29 7.8 18.2 0.00 0.00 0.00 39 1012.8
20260504171525 51 11 7.0 15.6 0.00 0.00 0.00 40 1012.9